Filewatcher File Search File Search
Catalog
Content Search
ftp://ftp.riken.jp/12/redhat/archive.redhat.com/redhat/linux/6.2/cpan/extra-SRPMS/  direct

5.17 KB2001-10-24perl-Apache-AuthzPasswd-0.10-6.src.rpm  10 mirrors
14.32 KB2001-10-24perl-Apache-AutoIndex-0.08-6.src.rpm  10 mirrors
8.41 KB2001-10-24perl-Apache-Icon-0.02-6.src.rpm  10 mirrors
19.57 KB2001-10-24perl-Apache-Language-0.09-6.src.rpm  10 mirrors
7.43 KB2001-10-24perl-Apache-LogFile-0.12-6.src.rpm  10 mirrors
11.24 KB2001-10-24perl-Apache-Module-0.11-6.src.rpm  10 mirrors
18.68 KB2001-10-24perl-Apache-Peek-0.9501-6.src.rpm  10 mirrors
4.41 KB2001-10-24perl-Apache-Proxy-0.02-6.src.rpm  10 mirrors
5.06 KB2001-10-24perl-Apache-RefererBlock-0.03-6.src.rpm  10 mirrors
11.40 KB2001-10-24perl-Apache-Scoreboard-0.10-6.src.rpm  10 mirrors
4.92 KB2001-10-24perl-Apache-SubProcess-0.02-6.src.rpm  10 mirrors
18.96 KB2001-10-24perl-App-Manager-0.03-6.src.rpm  10 mirrors
10.01 KB2001-10-24perl-Ar-0.2alpha-6.src.rpm  10 mirrors
20.68 KB2001-10-24perl-Astro-SLA-0.92-6.src.rpm  10 mirrors
53.83 KB2001-10-24perl-Audio-0.004-6.src.rpm  10 mirrors
8.27 KB2001-10-24perl-Audio-CD-0.03-6.src.rpm  10 mirrors
12.02 KB2001-10-24perl-Authen-ACE-0.90-6.src.rpm  10 mirrors
11.55 KB2001-10-24perl-Authen-Prot-1.08-6.src.rpm  10 mirrors
45.70 KB2001-10-24perl-B-JVM-Jasmin-0.02-6.src.rpm  10 mirrors
79.08 KB2001-10-24perl-BerkeleyDB-0.10-6.src.rpm  10 mirrors
4.25 KB2001-10-24perl-Business-CreditCard-0.21-6.src.rpm  10 mirrors
24.53 KB2001-10-24perl-CGI-BuildPage-0.95-6.src.rpm  10 mirrors
38.49 KB2001-10-24perl-CGI-SpeedyCGI-1.8.2-6.src.rpm  10 mirrors
86.73 KB2001-10-24perl-CORBA-MICO-0.5.0-6.src.rpm  10 mirrors
21.56 KB2001-10-24perl-Calendar-CSA-0.8-6.src.rpm  10 mirrors
929.87 KB2001-10-24perl-Catalog-1.02-6.src.rpm  10 mirrors
15.86 KB2001-10-24perl-Class-Tom-2.02-6.src.rpm  10 mirrors
14.53 KB2001-10-24perl-Compress-LZO-1.00-6.src.rpm  10 mirrors
17.52 KB2001-10-24perl-Convert-Ethiopic-0.11-6.src.rpm  10 mirrors
5.38 KB2001-10-24perl-Crypt-Cracklib-0.01-6.src.rpm  10 mirrors
4.25 KB2001-10-24perl-Crypt-GOST-0.41-6.src.rpm  10 mirrors
13.62 KB2001-10-24perl-Crypt-SSLeay-0.15-6.src.rpm  10 mirrors
23.34 KB2001-10-24perl-DBD-ASAny-1.05-6.src.rpm  10 mirrors
133.70 KB2001-10-24perl-DBD-Adabas-0.2003-6.src.rpm  10 mirrors
56.10 KB2001-10-24perl-DBD-DB2-0.71a-6.src.rpm  10 mirrors
58.24 KB2001-10-24perl-DBD-DBMaker-0.13-6.src.rpm  10 mirrors
24.97 KB2001-10-24perl-DBD-Fulcrum-0.20-6.src.rpm  10 mirrors
39.83 KB2001-10-24perl-DBD-Illustra-0.04-6.src.rpm  10 mirrors
208.03 KB2001-10-24perl-DBD-Informix-0.97005-6.src.rpm  10 mirrors
13.19 KB2001-10-24perl-DBD-Informix4-0.23-6.src.rpm  10 mirrors
40.91 KB2001-10-24perl-DBD-Ingres-0.25-6.src.rpm  10 mirrors
205.79 KB2001-10-24perl-DBD-ODBC-0.22-6.src.rpm  10 mirrors
142.75 KB2001-10-24perl-DBD-Oracle-1.03-6.src.rpm  10 mirrors
42.52 KB2001-10-24perl-DBD-Pg-0.93-6.src.rpm  10 mirrors
26.48 KB2001-10-24perl-DBD-SearchServer-0.21-6.src.rpm  10 mirrors
53.56 KB2001-10-24perl-DBD-Solid-0.13a-6.src.rpm  10 mirrors
55.93 KB2001-10-24perl-DBD-Sybase-0.21-6.src.rpm  10 mirrors
19.78 KB2001-10-24perl-DBD-Unify-0.04-6.src.rpm  10 mirrors
10.62 KB2001-10-24perl-DB_File-SV18x-kit-0.05-6.src.rpm  10 mirrors
39.26 KB2001-10-24perl-DCE-Perl-0.19-6.src.rpm  10 mirrors
<<     1   2   3     >>
Results 1 - 50 of 134
Help - FTP Sites List - Software Dir.
Search over 15 billion files
© 1997-2017 FileWatcher.com